TimeEST,TemperatureF,Dew PointF,Humidity,Sea Level PressureIn,VisibilityMPH,Wind Direction,Wind SpeedMPH,Gust SpeedMPH,PrecipitationIn,Events,Conditions,WindDirDegrees,DateUTC
12:51 AM,48.0,37.0,66,30.29,10.0,SSE,10.4,-,N/A,,Clear,160,2012-12-02 05:51:00
1:51 AM,48.0,37.9,68,30.28,10.0,SSE,9.2,-,N/A,,Clear,150,2012-12-02 06:51:00
2:51 AM,48.0,37.9,68,30.29,10.0,SSE,8.1,-,N/A,,Clear,150,2012-12-02 07:51:00
3:51 AM,46.9,37.9,71,30.28,10.0,SSE,9.2,-,N/A,,Clear,160,2012-12-02 08:51:00
4:51 AM,46.0,37.9,73,30.29,10.0,SSE,5.8,-,N/A,,Clear,150,2012-12-02 09:51:00
5:51 AM,46.9,37.9,71,30.29,10.0,SSE,6.9,-,N/A,,Clear,150,2012-12-02 10:51:00
6:51 AM,48.2,37.4,66,30.29,10.0,South,4.6,-,N/A,,Clear,190,2012-12-02 11:51:00
7:51 AM,48.9,37.9,66,30.29,10.0,South,6.9,-,N/A,,Clear,190,2012-12-02 12:51:00
8:51 AM,53.1,39.9,61,30.27,10.0,SSW,11.5,-,N/A,,Clear,210,2012-12-02 13:51:00
9:51 AM,57.0,41.0,55,30.27,10.0,SSW,13.8,18.4,N/A,,Clear,210,2012-12-02 14:51:00
10:51 AM,57.9,41.0,53,30.26,10.0,SW,8.1,18.4,N/A,,Clear,230,2012-12-02 15:51:00
11:51 AM,60.1,42.1,51,30.24,10.0,SW,13.8,23.0,N/A,,Clear,230,2012-12-02 16:51:00
12:51 PM,62.1,42.1,48,30.19,10.0,WSW,11.5,20.7,N/A,,Clear,240,2012-12-02 17:51:00
1:51 PM,62.1,43.0,50,30.17,10.0,WSW,11.5,-,N/A,,Partly Cloudy,240,2012-12-02 18:51:00
2:51 PM,62.1,43.0,50,30.17,10.0,SW,16.1,-,N/A,,Mostly Cloudy,220,2012-12-02 19:51:00
3:51 PM,62.1,44.1,52,30.16,10.0,SW,11.5,-,N/A,,Overcast,220,2012-12-02 20:51:00
4:51 PM,60.1,44.1,55,30.17,10.0,SSW,8.1,-,N/A,,Overcast,210,2012-12-02 21:51:00
5:51 PM,57.9,45.0,62,30.18,10.0,SSW,5.8,-,0.00,Rain,Light Rain,200,2012-12-02 22:51:00
6:51 PM,57.9,44.1,60,30.19,10.0,SSW,10.4,-,0.00,,Overcast,210,2012-12-02 23:51:00
7:51 PM,57.9,44.1,60,30.20,10.0,SW,11.5,-,0.00,,Overcast,230,2012-12-03 00:51:00
8:51 PM,55.9,46.0,69,30.20,10.0,SW,9.2,-,0.00,,Overcast,230,2012-12-03 01:51:00
9:51 PM,57.0,46.0,67,30.20,10.0,SW,6.9,-,N/A,,Overcast,230,2012-12-03 02:51:00
10:51 PM,57.2,46.4,67,30.24,10.0,WSW,8.1,16.1,N/A,,Overcast,240,2012-12-03 03:51:00
11:51 PM,55.9,46.9,72,30.21,10.0,WSW,9.2,-,N/A,,Overcast,240,2012-12-03 04:51:00